This is the latest recevied weather packets stored in our database for station/object IZ5MMH-4. If no packets are shown the sender has not sent any weather packets the latest 10 day(s).
| Time | Temp. | Humidity | Pressure | Rain* | Wind** | Luminosity | Snow |
|---|---|---|---|---|---|---|---|
| 1787920463 | 33.33° C | 75% | 1016.8 hPa | - | - | - | - |
| 1787919863 | 33.33° C | 72% | 1016.7 hPa | - | - | - | - |
| 1787919263 | 33.89° C | 72% | 1016.2 hPa | - | - | - | - |
| 1787918663 | 33.89° C | 72% | 1016.1 hPa | - | - | - | - |
| 1787918063 | 33.89° C | 70% | 1016.3 hPa | - | - | - | - |
| 1787917463 | 33.89° C | 70% | 1016.1 hPa | - | - | - | - |
| 1787916863 | 33.89° C | 68% | 1016.2 hPa | - | - | - | - |
| 1787916263 | 33.89° C | 68% | 1016.1 hPa | - | - | - | - |
| 1787915663 | 33.33° C | 67% | 1016.1 hPa | - | - | - | - |
| 1787915063 | 33.33° C | 66% | 1016.2 hPa | - | - | - | - |
| 1787914464 | 33.33° C | 65% | 1016.4 hPa | - | - | - | - |
| 1787913863 | 33.33° C | 65% | 1016.3 hPa | - | - | - | - |
| 1787913263 | 33.33° C | 65% | 1016.2 hPa | - | - | - | - |
| 1787912664 | 33.33° C | 65% | 1016.1 hPa | - | - | - | - |
| 1787912063 | 33.33° C | 64% | 1016.1 hPa | - | - | - | - |
| 1787911463 | 33.33° C | 62% | 1016 hPa | - | - | - | - |
| 1787910863 | 33.33° C | 59% | 1016.1 hPa | - | - | - | - |
| 1787910263 | 32.78° C | 59% | 1016.3 hPa | - | - | - | - |
| 1787909663 | 32.78° C | 59% | 1016 hPa | - | - | - | - |
| 1787909064 | 32.78° C | 59% | 1016 hPa | - | - | - | - |
| 1787908463 | 32.78° C | 59% | 1015.9 hPa | - | - | - | - |
| 1787907863 | 32.22° C | 61% | 1015.9 hPa | - | - | - | - |
| 1787907263 | 32.22° C | 63% | 1016 hPa | - | - | - | - |
| 1787906663 | 32.22° C | 64% | 1016 hPa | - | - | - | - |
| 1787906064 | 31.67° C | 65% | 1015.9 hPa | - | - | - | - |
* Rain since midnight (hover to see other rain measurements)
** Current wind speed in m/s (hover to see current wind gust speed)